Location: Unspecified
(0.0000°N, 0.0000°E)
Time: 14:13:42
(UTC+00:00)

AO-7 - Pass Details

Date: 26 September 2021
Orbit: 1439 x 1459 km, 101.9° (Epoch: 26 October)

Event Time Altitude Azimuth Distance (km) Brightness Sun altitude
Rises 03:19:18 0° 24° (NNE) 4,521 ? -38.0°
Reaches altitude 10° 03:22:07 10° 28° (NNE) 3,543 ? -37.3°
Maximum altitude 03:30:13 61° 106° (ESE) 1,607 ? -35.3°
Drops below altitude 10° 03:38:19 10° 184° (S) 3,552 ? -33.3°
Sets 03:41:08 0° 188° (S) 4,533 ? -32.6°
